This is the latest recevied weather packets stored in our database for station/object DL9BGG-13. If no packets are shown the sender has not sent any weather packets the latest 1 day(s).
| Time | Temp. | Humidity | Pressure | Rain* | Wind** | Luminosity | Snow |
|---|---|---|---|---|---|---|---|
| 1778022197 | 10° C | 82% | 1055.5 hPa | 0 mm | 2.68 m/s, 22° | - | - |
| 1778022124 | 10° C | 82% | 1055.5 hPa | 0 mm | 4.02 m/s, 0° | - | - |
| 1778022052 | 10° C | 82% | 1055.6 hPa | 0 mm | 2.24 m/s, 22° | - | - |
| 1778021986 | 10° C | 82% | 1055.5 hPa | 0 mm | 0 m/s | - | - |
| 1778021913 | 10° C | 82% | 1055.6 hPa | 0 mm | 3.13 m/s, 45° | - | - |
| 1778021847 | 10° C | 82% | 1055.6 hPa | 0 mm | 3.13 m/s, 0° | - | - |
| 1778021782 | 10° C | 82% | 1055.6 hPa | 0 mm | 2.68 m/s, 0° | - | - |
| 1778021716 | 10° C | 82% | 1055.6 hPa | 0 mm | 2.68 m/s, 22° | - | - |
| 1778021650 | 10° C | 82% | 1055.6 hPa | 0 mm | 1.34 m/s, 22° | - | - |
| 1778021570 | 10° C | 82% | 1055.6 hPa | 0 mm | 5.36 m/s, 45° | - | - |
| 1778021503 | 10° C | 82% | 1055.6 hPa | 0 mm | 2.68 m/s, 45° | - | - |
| 1778021430 | 10° C | 82% | 1055.6 hPa | 0 mm | 2.24 m/s, 45° | - | - |
| 1778021364 | 10° C | 83% | 1055.6 hPa | 0 mm | 0 m/s | - | - |
| 1778021290 | 10° C | 83% | 1055.7 hPa | 0 mm | 2.68 m/s, 45° | - | - |
| 1778021225 | 10° C | 83% | 1055.6 hPa | 0 mm | 2.68 m/s, 22° | - | - |
| 1778021159 | 10° C | 83% | 1055.7 hPa | 0 mm | 4.47 m/s, 67° | - | - |
| 1778021093 | 10° C | 83% | 1055.7 hPa | 0 mm | 3.58 m/s, 22° | - | - |
| 1778021013 | 10° C | 83% | 1055.7 hPa | 0 mm | 4.47 m/s, 67° | - | - |
| 1778020946 | 10° C | 83% | 1055.7 hPa | 0 mm | 3.58 m/s, 90° | - | - |
| 1778020872 | 10° C | 83% | 1055.7 hPa | 0 mm | 1.34 m/s, 22° | - | - |
| 1778020798 | 10° C | 83% | 1055.8 hPa | 0 mm | 2.68 m/s, 45° | - | - |
| 1778020733 | 10° C | 83% | 1055.7 hPa | 0 mm | 1.79 m/s, 45° | - | - |
| 1778020666 | 10° C | 83% | 1055.8 hPa | 0 mm | 2.24 m/s, 45° | - | - |
| 1778020601 | 10° C | 83% | 1055.8 hPa | 0 mm | 2.68 m/s, 45° | - | - |
| 1778020534 | 10° C | 83% | 1055.7 hPa | 0 mm | 3.58 m/s, 45° | - | - |
* Rain latest hour (hover to see other rain measurements)
** Current wind speed in m/s (hover to see current wind gust speed)